Location: Morlupo
(42.1333°N, 12.5000°E)
Time: 15:53:01
(UTC+00:00)

CZ-4 R/B - Pass Details

Date: 18 September 2020
Orbit: 530 x 600 km, 97.7° (Epoch: 20 October)

Event Time Altitude Azimuth Distance (km) Brightness Sun altitude
Rises 18:43:03 0° 203° (SSW) 2,833 5.0 -17.1°
Reaches altitude 10° 18:45:46 10° 222° (SW) 1,938 4.4 -17.6°
Maximum altitude 18:48:45 19° 267° (W) 1,457 4.3 -18.1°
Drops below altitude 10° 18:51:45 10° 312° (NW) 1,944 5.1 -18.6°
Sets 18:54:29 0° 331° (NNW) 2,845 5.7 -19.1°
